TimeAST,TemperatureF,Dew PointF,Humidity,Sea Level PressureIn,VisibilityMPH,Wind Direction,Wind SpeedMPH,Gust SpeedMPH,PrecipitationIn,Events,Conditions,WindDirDegrees,DateUTC
12:00 AM,78.8,69.8,74,29.92,6.2,East,4.6,-,N/A,,Mostly Cloudy,80,2013-03-16 04:00:00
2:00 AM,75.2,68.0,78,29.92,6.2,Calm,Calm,-,N/A,,Scattered Clouds,0,2013-03-16 06:00:00
3:00 AM,75.2,69.8,83,29.89,6.2,Calm,Calm,-,N/A,,Partly Cloudy,0,2013-03-16 07:00:00
4:00 AM,75.2,69.8,83,29.89,6.2,Calm,Calm,-,N/A,,Partly Cloudy,0,2013-03-16 08:00:00
5:00 AM,75.2,69.8,83,29.89,6.2,Calm,Calm,-,N/A,,Partly Cloudy,0,2013-03-16 09:00:00
6:00 AM,75.2,69.8,83,29.92,6.2,Calm,Calm,-,N/A,,Mostly Cloudy,0,2013-03-16 10:00:00
7:00 AM,75.2,69.8,83,29.95,6.2,NE,5.8,-,N/A,,Mostly Cloudy,50,2013-03-16 11:00:00
8:00 AM,82.4,71.6,70,29.98,6.2,North,6.9,-,N/A,,Mostly Cloudy,10,2013-03-16 12:00:00
9:00 AM,82.4,71.6,70,29.98,6.2,NNE,11.5,-,N/A,,Mostly Cloudy,30,2013-03-16 13:00:00
10:00 AM,80.6,69.8,70,29.98,6.2,NNE,11.5,-,N/A,Rain,Light Rain Showers,20,2013-03-16 14:00:00
11:00 AM,78.8,69.8,74,29.98,6.2,East,6.9,-,N/A,,Mostly Cloudy,80,2013-03-16 15:00:00
12:00 PM,78.8,71.6,78,29.95,6.2,ENE,9.2,-,N/A,Rain,Light Rain Showers,60,2013-03-16 16:00:00
1:00 PM,80.6,71.6,74,29.92,6.2,NE,11.5,-,N/A,,Mostly Cloudy,50,2013-03-16 17:00:00
2:00 PM,82.4,73.4,74,29.89,6.2,East,13.8,-,N/A,,Mostly Cloudy,90,2013-03-16 18:00:00
3:00 PM,80.6,68.0,65,29.89,6.2,East,13.8,-,N/A,,Mostly Cloudy,80,2013-03-16 19:00:00
4:00 PM,80.6,69.8,70,29.89,6.2,East,13.8,-,N/A,,Mostly Cloudy,90,2013-03-16 20:00:00
5:00 PM,80.6,69.8,70,29.89,6.2,East,9.2,-,N/A,,Mostly Cloudy,90,2013-03-16 21:00:00
6:00 PM,80.6,68.0,65,29.89,6.2,East,11.5,-,N/A,,Mostly Cloudy,90,2013-03-16 22:00:00
7:00 PM,78.8,68.0,69,29.92,6.2,ENE,6.9,-,N/A,,Mostly Cloudy,60,2013-03-16 23:00:00
8:00 PM,78.8,71.6,78,29.92,6.2,Calm,Calm,-,N/A,,Mostly Cloudy,0,2013-03-17 00:00:00
9:00 PM,77.0,68.0,74,29.95,6.2,Calm,Calm,-,N/A,,Mostly Cloudy,0,2013-03-17 01:00:00
10:00 PM,75.2,68.0,78,29.95,6.2,Calm,Calm,-,N/A,,Mostly Cloudy,0,2013-03-17 02:00:00
11:00 PM,75.2,66.2,73,29.95,6.2,Calm,Calm,-,N/A,,Mostly Cloudy,0,2013-03-17 03:00:00